This is the latest recevied weather packets stored in our database for station/object N5JXS. If no packets are shown the sender has not sent any weather packets the latest 10 day(s).
| Time | Temp. | Humidity | Pressure | Rain* | Wind** | Luminosity | Snow |
|---|---|---|---|---|---|---|---|
| 1788622708 | 24.44° C | 34% | 1026.3 hPa | 0 mm | - | 103 W/m² | - |
| 1788622438 | 23.89° C | 34% | 1026.6 hPa | 0 mm | - | 111 W/m² | - |
| 1788622104 | 23.89° C | 35% | 1026.1 hPa | 0 mm | - | 101 W/m² | - |
| 1788621803 | 23.33° C | 35% | 1026.3 hPa | 0 mm | - | 104 W/m² | - |
| 1788621498 | 23.33° C | 36% | 1026.2 hPa | 0 mm | - | 66 W/m² | - |
| 1788621194 | 23.33° C | 38% | 1026.2 hPa | 0 mm | - | 47 W/m² | - |
| 1788620893 | 22.78° C | 38% | 1026.2 hPa | 0 mm | - | 48 W/m² | - |
| 1788620588 | 22.78° C | 39% | 1026.5 hPa | 0 mm | - | 111 W/m² | - |
| 1788620285 | 22.22° C | 40% | 1026.5 hPa | 0 mm | - | 150 W/m² | - |
| 1788619979 | 21.67° C | 42% | 1026.5 hPa | 0 mm | - | 68 W/m² | - |
| 1788619678 | 21.11° C | 44% | 1026.2 hPa | 0 mm | - | 59 W/m² | - |
| 1788619374 | 21.11° C | 45% | 1026.3 hPa | 0 mm | - | 44 W/m² | - |
| 1788619072 | 20.56° C | 45% | 1026.5 hPa | 0 mm | - | 43 W/m² | - |
| 1788618767 | 20.56° C | 45% | 1026.6 hPa | 0 mm | - | 46 W/m² | - |
| 1788618465 | 20.56° C | 45% | 1026.2 hPa | 0 mm | - | 34 W/m² | - |
| 1788618160 | 20.56° C | 45% | 1026.5 hPa | 0 mm | - | 28 W/m² | - |
| 1788617856 | 20.56° C | 45% | 1026.6 hPa | 0 mm | - | 33 W/m² | - |
| 1788617552 | 20° C | 46% | 1026.3 hPa | 0 mm | - | 32 W/m² | - |
| 1788617247 | 19.44° C | 47% | 1026.3 hPa | 0 mm | - | 35 W/m² | - |
| 1788616941 | 19.44° C | 46% | 1026.3 hPa | 0 mm | - | 26 W/m² | - |
| 1788616641 | 19.44° C | 46% | 1026.1 hPa | 0 mm | - | 26 W/m² | - |
| 1788616337 | 18.89° C | 46% | 1025.8 hPa | 0 mm | - | 26 W/m² | - |
| 1788616036 | 18.33° C | 47% | 1026 hPa | 0 mm | - | 23 W/m² | - |
| 1788615736 | 18.33° C | 49% | 1026 hPa | 0 mm | - | 19 W/m² | - |
| 1788615431 | 18.33° C | 49% | 1026.1 hPa | 0 mm | - | 17 W/m² | - |
* Rain latest hour (hover to see other rain measurements)
** Current wind speed in m/s (hover to see current wind gust speed)